DLH958 EDDF-EGBB

Flight info

Callsign DLH958
Flight time 1h 13m
Altitude 36000
Route OBOKA2E/07C OBOKA Z29 TORNU DCT GALSO Q63 ERING L179 LAM L610 HEMEL
Aircraft CRJ9/M-SDFGIRWY/S

Departure

Time 2026-04-15 11:42
Airport Frankfurt Main Airport (EDDF)

Arrival

Time 2026-04-15 12:56
Airport Birmingham Airport (EGBB)
Time Latitude Longitude Altitude Speed Heading
2026-04-15 11:29 50.03709 8.54133 352 ft 0 kts 159°
2026-04-15 11:39 50.03685 8.54147 337 ft 9 kts 159°
2026-04-15 11:39 50.03639 8.54199 339 ft 8 kts 99°
2026-04-15 11:39 50.03628 8.54289 339 ft 9 kts 130°
2026-04-15 11:40 50.03574 8.54330 336 ft 9 kts 160°
2026-04-15 11:40 50.03523 8.54361 351 ft 6 kts 149°
2026-04-15 11:40 50.03498 8.54415 347 ft 6 kts 104°
2026-04-15 11:40 50.03502 8.54467 343 ft 0 kts 70°
2026-04-15 11:41 50.03525 8.54565 350 ft 35 kts 69°
2026-04-15 11:42 50.03703 8.55307 344 ft 109 kts 69°
2026-04-15 11:42 50.04038 8.56705 360 ft 164 kts 70°
2026-04-15 11:42 50.04446 8.58447 937 ft 173 kts 68°
2026-04-15 11:42 50.04871 8.60222 1783 ft 180 kts 69°
2026-04-15 11:43 50.05353 8.62096 2423 ft 192 kts 63°
2026-04-15 11:43 50.06369 8.63471 3041 ft 205 kts 17°
2026-04-15 11:43 50.07815 8.63747 3653 ft 223 kts
2026-04-15 11:43 50.09431 8.63643 4321 ft 244 kts 351°
2026-04-15 11:44 50.11044 8.62448 4726 ft 277 kts 316°
2026-04-15 11:44 50.12318 8.59969 4976 ft 312 kts 307°
2026-04-15 11:44 50.13692 8.57232 5843 ft 316 kts 307°
2026-04-15 11:44 50.15046 8.54537 7038 ft 318 kts 306°
2026-04-15 11:45 50.16410 8.51784 7945 ft 324 kts 306°
2026-04-15 11:45 50.17794 8.49043 8841 ft 329 kts 307°
2026-04-15 11:45 50.19219 8.46209 9767 ft 334 kts 307°
2026-04-15 11:45 50.20657 8.43344 10719 ft 336 kts 307°
2026-04-15 11:46 50.22105 8.40457 11584 ft 339 kts 307°
2026-04-15 11:46 50.23559 8.37553 12449 ft 342 kts 307°
2026-04-15 11:46 50.25030 8.34608 13273 ft 345 kts 307°
2026-04-15 11:46 50.26509 8.31641 14086 ft 347 kts 307°
2026-04-15 11:47 50.28002 8.28647 14750 ft 352 kts 306°
2026-04-15 11:47 50.29515 8.25612 15403 ft 355 kts 306°
2026-04-15 11:47 50.31040 8.22549 16040 ft 359 kts 306°
2026-04-15 11:47 50.32561 8.19490 16640 ft 363 kts 306°
2026-04-15 11:48 50.34117 8.16355 17249 ft 366 kts 306°
2026-04-15 11:48 50.35689 8.13186 17833 ft 370 kts 306°
2026-04-15 11:48 50.37274 8.09988 18450 ft 373 kts 306°
2026-04-15 11:48 50.38867 8.06762 18980 ft 375 kts 306°
2026-04-15 11:49 50.40471 8.03515 19490 ft 378 kts 306°
2026-04-15 11:49 50.42084 8.00245 20000 ft 380 kts 306°
2026-04-15 11:49 50.43705 7.96956 20500 ft 382 kts 306°
2026-04-15 11:49 50.45313 7.93690 20976 ft 385 kts 307°
2026-04-15 11:50 50.46953 7.90355 21462 ft 387 kts 307°
2026-04-15 11:50 50.48606 7.86995 21886 ft 390 kts 306°
2026-04-15 11:50 50.50266 7.83605 22354 ft 393 kts 306°
2026-04-15 11:50 50.51937 7.80194 22796 ft 395 kts 306°
2026-04-15 11:51 50.53616 7.76764 23225 ft 398 kts 306°
2026-04-15 11:51 50.55306 7.73302 23650 ft 400 kts 307°
2026-04-15 11:51 50.57003 7.69821 24026 ft 402 kts 307°
2026-04-15 11:51 50.58705 7.66327 24393 ft 403 kts 307°
2026-04-15 11:52 50.60386 7.62870 24749 ft 404 kts 307°
2026-04-15 11:52 50.62097 7.59346 25101 ft 405 kts 307°
2026-04-15 11:52 50.63811 7.55815 25461 ft 406 kts 307°
2026-04-15 11:52 50.65529 7.52267 25790 ft 408 kts 307°
2026-04-15 11:53 50.67250 7.48710 26112 ft 409 kts 307°
2026-04-15 11:53 50.68978 7.45148 26454 ft 409 kts 306°
2026-04-15 11:53 50.70702 7.41567 26760 ft 411 kts 306°
2026-04-15 11:53 50.72435 7.37971 27058 ft 412 kts 306°
2026-04-15 11:54 50.74053 7.34311 27328 ft 413 kts 300°
2026-04-15 11:54 50.75413 7.30310 27607 ft 414 kts 296°
2026-04-15 11:54 50.76597 7.26159 27882 ft 415 kts 292°
2026-04-15 11:54 50.77655 7.21907 28150 ft 417 kts 291°
2026-04-15 11:55 50.78702 7.17629 28407 ft 418 kts 291°
2026-04-15 11:55 50.79754 7.13329 28657 ft 420 kts 292°
2026-04-15 11:55 50.80850 7.09050 28903 ft 421 kts 292°
2026-04-15 11:55 50.81956 7.04756 29133 ft 422 kts 292°
2026-04-15 11:56 50.83056 7.00495 29322 ft 425 kts 292°
2026-04-15 11:56 50.84164 6.96156 29542 ft 426 kts 292°
2026-04-15 11:56 50.85277 6.91806 29758 ft 427 kts 292°
2026-04-15 11:56 50.86393 6.87433 29970 ft 429 kts 292°
2026-04-15 11:57 50.87508 6.83051 30173 ft 430 kts 292°
2026-04-15 11:57 50.89749 6.74234 30548 ft 432 kts 292°
2026-04-15 11:57 50.90870 6.69809 30728 ft 433 kts 292°
2026-04-15 11:58 50.91990 6.65376 30893 ft 434 kts 292°
2026-04-15 11:58 50.93097 6.60990 31053 ft 435 kts 292°
2026-04-15 11:58 50.94223 6.56528 31152 ft 437 kts 291°
2026-04-15 11:58 50.95347 6.52046 31300 ft 438 kts 291°
2026-04-15 11:59 50.96473 6.47554 31448 ft 439 kts 291°
2026-04-15 11:59 50.97600 6.43055 31585 ft 439 kts 291°
2026-04-15 11:59 50.98727 6.38542 31737 ft 440 kts 291°
2026-04-15 11:59 50.99852 6.34022 31941 ft 439 kts 291°
2026-04-15 12:00 51.00971 6.29524 32170 ft 438 kts 291°
2026-04-15 12:00 51.02076 6.25091 32363 ft 437 kts 291°
2026-04-15 12:00 51.03183 6.20606 32568 ft 436 kts 291°
2026-04-15 12:00 51.04291 6.16124 32762 ft 435 kts 291°
2026-04-15 12:01 51.05404 6.11643 32888 ft 436 kts 291°
2026-04-15 12:01 51.06510 6.07148 33026 ft 436 kts 290°
2026-04-15 12:01 51.07608 6.02654 33214 ft 436 kts 290°
2026-04-15 12:01 51.08708 5.98165 33372 ft 435 kts 290°
2026-04-15 12:02 51.09806 5.93680 33553 ft 435 kts 290°
2026-04-15 12:02 51.10901 5.89193 33718 ft 434 kts 290°
2026-04-15 12:02 51.11980 5.84774 33860 ft 434 kts 290°
2026-04-15 12:02 51.13069 5.80295 34026 ft 433 kts 290°
2026-04-15 12:03 51.14157 5.75818 34173 ft 433 kts 290°
2026-04-15 12:03 51.15240 5.71340 34296 ft 433 kts 290°
2026-04-15 12:03 51.16320 5.66912 34688 ft 425 kts 290°
2026-04-15 12:03 51.17397 5.62536 34890 ft 424 kts 290°
2026-04-15 12:04 51.18470 5.58163 35027 ft 423 kts 289°
2026-04-15 12:04 51.19528 5.53787 35143 ft 423 kts 289°
2026-04-15 12:04 51.20572 5.49410 35271 ft 423 kts 289°
2026-04-15 12:04 51.21597 5.45093 35414 ft 422 kts 289°
2026-04-15 12:05 51.22639 5.40724 35560 ft 421 kts 289°
2026-04-15 12:05 51.23681 5.36358 35689 ft 420 kts 289°
2026-04-15 12:05 51.24720 5.31998 35783 ft 420 kts 289°
2026-04-15 12:05 51.25756 5.27643 35899 ft 420 kts 289°
2026-04-15 12:06 51.26791 5.23277 36031 ft 420 kts 289°
2026-04-15 12:06 51.28863 5.14540 36195 ft 420 kts 288°
2026-04-15 12:06 51.29887 5.10169 36298 ft 420 kts 288°
2026-04-15 12:07 51.30896 5.05862 36400 ft 420 kts 288°
2026-04-15 12:07 51.31919 5.01498 36521 ft 419 kts 288°
2026-04-15 12:07 51.32940 4.97137 36581 ft 419 kts 288°
2026-04-15 12:08 51.34968 4.88465 36334 ft 409 kts 288°
2026-04-15 12:08 51.36931 4.80023 36185 ft 405 kts 288°
2026-04-15 12:09 51.38909 4.71528 36172 ft 410 kts 287°
2026-04-15 12:09 51.40875 4.62950 36171 ft 416 kts 287°
2026-04-15 12:10 51.42878 4.54204 36169 ft 421 kts 287°
2026-04-15 12:10 51.44910 4.45343 36168 ft 426 kts 287°
2026-04-15 12:11 51.46954 4.36372 36168 ft 431 kts 287°
2026-04-15 12:11 51.48997 4.27359 36167 ft 435 kts 287°
2026-04-15 12:12 51.51068 4.18190 36171 ft 439 kts 287°
2026-04-15 12:12 51.53147 4.08949 36157 ft 439 kts 287°
2026-04-15 12:13 51.55208 3.99745 36143 ft 437 kts 287°
2026-04-15 12:13 51.57236 3.90644 36136 ft 434 kts 286°
2026-04-15 12:14 51.59248 3.81516 36117 ft 431 kts 282°
2026-04-15 12:14 51.60093 3.72115 36137 ft 423 kts 270°
2026-04-15 12:15 51.60128 3.62698 36129 ft 420 kts 266°
2026-04-15 12:15 51.60056 3.53320 36127 ft 419 kts 267°
2026-04-15 12:16 51.60074 3.43962 36125 ft 418 kts 267°
2026-04-15 12:16 51.60094 3.34698 36131 ft 417 kts 266°
2026-04-15 12:17 51.60104 3.25382 36127 ft 416 kts 266°
2026-04-15 12:17 51.60099 3.16089 36123 ft 415 kts 266°
2026-04-15 12:18 51.60093 3.06819 36116 ft 414 kts 266°
2026-04-15 12:18 51.60078 2.97559 36116 ft 413 kts 266°
2026-04-15 12:19 51.60058 2.88384 36129 ft 413 kts 265°
2026-04-15 12:19 51.60073 2.79171 36111 ft 412 kts 265°
2026-04-15 12:20 51.60047 2.69939 36104 ft 411 kts 265°
2026-04-15 12:20 51.59991 2.60745 36102 ft 411 kts 265°
2026-04-15 12:21 51.59943 2.51627 36106 ft 410 kts 265°
2026-04-15 12:21 51.59890 2.42453 36102 ft 410 kts 265°
2026-04-15 12:22 51.59838 2.33284 36118 ft 410 kts 264°
2026-04-15 12:22 51.59757 2.24119 36113 ft 410 kts 264°
2026-04-15 12:23 51.59676 2.15010 36112 ft 410 kts 264°
2026-04-15 12:23 51.59594 2.05842 36092 ft 410 kts 264°
2026-04-15 12:24 51.59503 1.96681 36094 ft 409 kts 263°
2026-04-15 12:24 51.59410 1.87530 36099 ft 410 kts 263°
2026-04-15 12:25 51.59302 1.78435 36086 ft 409 kts 263°
2026-04-15 12:25 51.59183 1.69283 36079 ft 409 kts 263°
2026-04-15 12:26 51.59105 1.60133 36080 ft 411 kts 265°
2026-04-15 12:26 51.59462 1.50932 36071 ft 413 kts 268°
2026-04-15 12:27 51.59950 1.41723 36101 ft 413 kts 268°
2026-04-15 12:27 51.60352 1.32565 36066 ft 413 kts 267°
2026-04-15 12:28 51.60733 1.23347 36070 ft 413 kts 267°
2026-04-15 12:28 51.61109 1.14138 36059 ft 413 kts 266°
2026-04-15 12:29 51.61486 1.04914 36060 ft 413 kts 266°
2026-04-15 12:29 51.61864 0.95698 36098 ft 413 kts 266°
2026-04-15 12:30 51.62239 0.86533 36058 ft 414 kts 266°
2026-04-15 12:30 51.62614 0.77246 35700 ft 422 kts 266°
2026-04-15 12:30 51.62799 0.72514 35265 ft 425 kts 266°
2026-04-15 12:31 51.62983 0.67784 34836 ft 421 kts 266°
2026-04-15 12:31 51.63171 0.63120 34409 ft 415 kts 266°
2026-04-15 12:31 51.63359 0.58515 33977 ft 410 kts 266°
2026-04-15 12:31 51.63551 0.53968 33461 ft 406 kts 266°
2026-04-15 12:32 51.63745 0.49451 32938 ft 403 kts 266°
2026-04-15 12:32 51.63938 0.45022 32458 ft 400 kts 266°
2026-04-15 12:32 51.64135 0.40567 31945 ft 398 kts 266°
2026-04-15 12:32 51.64333 0.36134 31440 ft 396 kts 266°
2026-04-15 12:33 51.64529 0.31736 30956 ft 394 kts 266°
2026-04-15 12:33 51.64728 0.27345 30488 ft 392 kts 266°
2026-04-15 12:33 51.64927 0.22974 29987 ft 390 kts 266°
2026-04-15 12:33 51.65128 0.18626 29421 ft 389 kts 266°
2026-04-15 12:34 51.65327 0.14292 28867 ft 387 kts 266°
2026-04-15 12:34 51.65526 0.09975 28327 ft 386 kts 266°
2026-04-15 12:34 51.65725 0.05726 27807 ft 385 kts 266°
2026-04-15 12:34 51.65948 0.01434 27285 ft 387 kts 270°
2026-04-15 12:35 51.66635 -0.02821 26765 ft 395 kts 278°
2026-04-15 12:35 51.67553 -0.07002 26248 ft 400 kts 284°
2026-04-15 12:35 51.68851 -0.11027 25774 ft 409 kts 293°
2026-04-15 12:35 51.70424 -0.14869 25309 ft 412 kts 296°
2026-04-15 12:36 51.72098 -0.18626 24836 ft 413 kts 298°
2026-04-15 12:36 51.73842 -0.22316 24367 ft 414 kts 300°
2026-04-15 12:36 51.75674 -0.25915 23907 ft 416 kts 302°
2026-04-15 12:36 51.77536 -0.29407 23443 ft 416 kts 303°
2026-04-15 12:37 51.79427 -0.32941 22955 ft 415 kts 303°
2026-04-15 12:37 51.81314 -0.36460 22506 ft 413 kts 303°
2026-04-15 12:37 51.83159 -0.39979 22086 ft 409 kts 302°
2026-04-15 12:37 51.84986 -0.43488 21668 ft 407 kts 302°
2026-04-15 12:38 51.86801 -0.46978 21262 ft 404 kts 302°
2026-04-15 12:38 51.88606 -0.50455 20856 ft 402 kts 303°
2026-04-15 12:38 51.90401 -0.53917 20452 ft 401 kts 303°
2026-04-15 12:38 51.92188 -0.57369 20057 ft 399 kts 303°
2026-04-15 12:39 51.93964 -0.60810 19660 ft 397 kts 303°
2026-04-15 12:39 51.95712 -0.64190 19277 ft 396 kts 303°
2026-04-15 12:39 51.97377 -0.67697 18889 ft 388 kts 295°
2026-04-15 12:39 51.98748 -0.71440 18505 ft 384 kts 292°
2026-04-15 12:40 52.00075 -0.75191 18104 ft 383 kts 293°
2026-04-15 12:40 52.01455 -0.78901 17668 ft 384 kts 295°
2026-04-15 12:40 52.02899 -0.82539 17242 ft 384 kts 296°
2026-04-15 12:40 52.04352 -0.86169 16889 ft 382 kts 296°
2026-04-15 12:41 52.05786 -0.89792 16498 ft 381 kts 296°
2026-04-15 12:41 52.07193 -0.93362 16123 ft 379 kts 296°
2026-04-15 12:41 52.08616 -0.96970 15728 ft 378 kts 296°
2026-04-15 12:41 52.10034 -1.00564 15393 ft 377 kts 295°
2026-04-15 12:42 52.11444 -1.04147 15025 ft 376 kts 295°
2026-04-15 12:42 52.12846 -1.07721 14668 ft 374 kts 295°
2026-04-15 12:42 52.14241 -1.11287 14300 ft 373 kts 295°
2026-04-15 12:42 52.15633 -1.14835 13949 ft 371 kts 296°
2026-04-15 12:43 52.17020 -1.18375 13578 ft 370 kts 295°
2026-04-15 12:43 52.18374 -1.21851 13186 ft 368 kts 295°
2026-04-15 12:43 52.19747 -1.25359 12794 ft 366 kts 296°
2026-04-15 12:43 52.21105 -1.28849 12410 ft 363 kts 296°
2026-04-15 12:44 52.22454 -1.32322 12023 ft 361 kts 296°
2026-04-15 12:44 52.23795 -1.35748 11635 ft 356 kts 296°
2026-04-15 12:44 52.25405 -1.38846 11245 ft 361 kts 312°
2026-04-15 12:44 52.27302 -1.41512 10875 ft 358 kts 314°
2026-04-15 12:45 52.29208 -1.44098 10516 ft 355 kts 315°
2026-04-15 12:45 52.31109 -1.46638 10150 ft 351 kts 315°
2026-04-15 12:45 52.32983 -1.49127 9936 ft 340 kts 315°
2026-04-15 12:45 52.34760 -1.51448 9846 ft 324 kts 316°
2026-04-15 12:46 52.36615 -1.53459 9718 ft 315 kts 323°
2026-04-15 12:46 52.38476 -1.55226 9607 ft 304 kts 324°
2026-04-15 12:46 52.40288 -1.56882 9501 ft 294 kts 325°
2026-04-15 12:46 52.42053 -1.58467 9395 ft 285 kts 325°
2026-04-15 12:47 52.43788 -1.60012 9045 ft 285 kts 325°
2026-04-15 12:47 52.45553 -1.61585 8512 ft 290 kts 325°
2026-04-15 12:47 52.47317 -1.63157 7994 ft 288 kts 325°
2026-04-15 12:47 52.49073 -1.64721 7490 ft 286 kts 325°
2026-04-15 12:48 52.50796 -1.66252 6996 ft 284 kts 325°
2026-04-15 12:48 52.52526 -1.67784 6576 ft 279 kts 325°
2026-04-15 12:48 52.54216 -1.69275 6191 ft 273 kts 325°
2026-04-15 12:48 52.55864 -1.70709 5800 ft 263 kts 325°
2026-04-15 12:49 52.57458 -1.72073 5422 ft 254 kts 325°
2026-04-15 12:49 52.59008 -1.73381 5033 ft 247 kts 325°
2026-04-15 12:49 52.60521 -1.74638 4639 ft 241 kts 325°
2026-04-15 12:49 52.61901 -1.76057 4198 ft 226 kts 304°
2026-04-15 12:50 52.62589 -1.78163 3800 ft 204 kts 269°
2026-04-15 12:50 52.62528 -1.80397 3423 ft 193 kts 253°
2026-04-15 12:50 52.62334 -1.82504 3225 ft 179 kts 252°
2026-04-15 12:50 52.62131 -1.84438 3097 ft 164 kts 251°
2026-04-15 12:51 52.61911 -1.86178 3010 ft 145 kts 240°
2026-04-15 12:51 52.61146 -1.87303 3040 ft 160 kts 198°
2026-04-15 12:51 52.60048 -1.87764 3059 ft 171 kts 192°
2026-04-15 12:51 52.58826 -1.88151 3076 ft 181 kts 191°
2026-04-15 12:52 52.57561 -1.88319 3045 ft 192 kts 174°
2026-04-15 12:52 52.56308 -1.87268 2774 ft 207 kts 147°
2026-04-15 12:52 52.55208 -1.85841 2453 ft 195 kts 148°
2026-04-15 12:52 52.54185 -1.84599 2240 ft 167 kts 150°
2026-04-15 12:53 52.53308 -1.83583 1993 ft 141 kts 153°
2026-04-15 12:53 52.52555 -1.82735 1844 ft 129 kts 154°
2026-04-15 12:53 52.51807 -1.81927 1692 ft 127 kts 155°
2026-04-15 12:53 52.51094 -1.81137 1500 ft 121 kts 156°
2026-04-15 12:54 52.50393 -1.80379 1295 ft 125 kts 158°
2026-04-15 12:54 52.49589 -1.79532 1160 ft 153 kts 151°
2026-04-15 12:54 52.48772 -1.78579 959 ft 128 kts 154°
2026-04-15 12:54 52.48048 -1.77780 734 ft 135 kts 150°
2026-04-15 12:55 52.47222 -1.76845 559 ft 141 kts 151°
2026-04-15 12:55 52.46445 -1.75968 365 ft 133 kts 152°
2026-04-15 12:55 52.45759 -1.75215 322 ft 98 kts 146°
2026-04-15 12:55 52.45269 -1.74671 326 ft 75 kts 146°
2026-04-15 12:56 52.45004 -1.74378 326 ft 19 kts 146°
2026-04-15 12:56 52.44944 -1.74275 326 ft 12 kts 93°
2026-04-15 12:56 52.44961 -1.74151 327 ft 11 kts 76°
2026-04-15 12:56 52.44982 -1.74014 322 ft 15 kts 76°
2026-04-15 12:57 52.45024 -1.73861 322 ft 15 kts 56°
2026-04-15 12:57 52.45072 -1.73771 322 ft 10 kts 17°
2026-04-15 12:57 52.45114 -1.73789 320 ft 10 kts 326°
2026-04-15 12:57 52.45172 -1.73854 322 ft 11 kts 326°
2026-04-15 12:58 52.45243 -1.73933 322 ft 0 kts 326°
2026-04-15 12:58 52.45248 -1.73939 322 ft 2 kts 326°
2026-04-15 12:58 52.45277 -1.73970 321 ft 7 kts 332°
2026-04-15 12:58 52.45309 -1.73971 322 ft 7 kts 24°
2026-04-15 12:59 52.45386 -1.73800 322 ft 11 kts 56°
2026-04-15 12:59 52.45420 -1.73718 320 ft 8 kts 56°
2026-04-15 12:59 52.45451 -1.73643 321 ft 5 kts 56°
2026-04-15 13:00 52.45474 -1.73588 322 ft 6 kts 56°
2026-04-15 13:00 52.45501 -1.73523 322 ft 7 kts 55°
2026-04-15 13:00 52.45527 -1.73462 322 ft 5 kts 56°
2026-04-15 13:00 52.45530 -1.73420 321 ft 3 kts 124°
2026-04-15 13:01 52.45511 -1.73397 322 ft 4 kts 146°
2026-04-15 13:01 52.45487 -1.73370 321 ft 5 kts 146°
2026-04-15 13:01 52.45478 -1.73360 322 ft 0 kts 146°